Terminal Aerodrome Forecast
Issued by NWS Portland, OR

Home | Current Version | Previous Version | Text Only | Print | Product List | Glossary On
Versions: 1 2 3 4 5 6 7 8 9 10 11 12 13 14 15 16 17 18 19 20 21 22 23 24 25 26 27 28 29 30 31
000
FTUS46 KPQR 232320
TAFHIO
TAF
KHIO 232320Z 2400/2424 16008KT P6SM -SHRA SCT020 BKN080
     FM240100 20009KT P6SM -SHRA SCT030 OVC050
     FM241300 18004KT P6SM SCT020 OVC030
     FM241800 26005KT P6SM SCT030 BKN040=

USA.gov is the U.S. government's official web portal to all federal, state and local government web resources and services.